Year,Month,Day,Hour,Minute,Value (Times are PST for windgust in km/hr)
2006,02,01,00,00,27.40
2006,02,01,00,01,19.30
2006,02,01,00,02,19.30
2006,02,01,00,03,29.00
2006,02,01,00,04,22.50
2006,02,01,00,05,17.70
2006,02,01,00,06,38.60
2006,02,01,00,07,24.20
2006,02,01,00,08,27.40
2006,02,01,00,09,25.70
2006,02,01,00,10,35.40
2006,02,01,00,11,33.80
2006,02,01,00,12,29.00
2006,02,01,00,13,27.40
2006,02,01,00,14,14.50
2006,02,01,00,15,19.30
2006,02,01,00,16,29.00
2006,02,01,00,17,27.40
2006,02,01,00,18,29.00
2006,02,01,00,19,20.90
2006,02,01,00,20,11.30
2006,02,01,00,21,40.20
2006,02,01,00,22,27.40
2006,02,01,00,23,30.60
2006,02,01,00,24,30.60
2006,02,01,00,25,22.50
2006,02,01,00,26,38.60
2006,02,01,00,27,38.60
2006,02,01,00,28,33.80
2006,02,01,00,29,22.50
2006,02,01,00,30,17.70
2006,02,01,00,31,25.70
2006,02,01,00,32,27.40
2006,02,01,00,33,16.10
2006,02,01,00,34,20.90
2006,02,01,00,35,33.80
2006,02,01,00,36,19.30
2006,02,01,00,37,46.70
2006,02,01,00,38,41.80
2006,02,01,00,39,32.20
2006,02,01,00,40,32.20
2006,02,01,00,41,37.00
2006,02,01,00,42,35.40
2006,02,01,00,43,29.00
2006,02,01,00,44,25.70
2006,02,01,00,45,41.80
2006,02,01,00,46,40.20
2006,02,01,00,47,25.70
2006,02,01,00,48,48.30
2006,02,01,00,49,30.60
2006,02,01,00,50,37.00
2006,02,01,00,51,22.50
2006,02,01,00,52,25.70
2006,02,01,00,53,35.40
2006,02,01,00,54,29.00
2006,02,01,00,55,27.40
2006,02,01,00,56,40.20
2006,02,01,00,57,51.50
2006,02,01,00,58,22.50
2006,02,01,00,59,25.70
2006,02,01,01,00,25.70
2006,02,01,01,01,29.00
2006,02,01,01,02,37.00
2006,02,01,01,03,30.60
2006,02,01,01,04,25.70
2006,02,01,01,05,33.80
2006,02,01,01,06,24.20
2006,02,01,01,07,29.00
2006,02,01,01,08,24.20
2006,02,01,01,09,24.20
2006,02,01,01,10,24.20
2006,02,01,01,11,25.70
2006,02,01,01,12,16.10
2006,02,01,01,13,30.60
2006,02,01,01,14,25.70
2006,02,01,01,15,24.20
2006,02,01,01,16,32.20
2006,02,01,01,17,40.20
2006,02,01,01,18,35.40
2006,02,01,01,19,35.40
2006,02,01,01,20,30.60
2006,02,01,01,21,29.00
2006,02,01,01,22,38.60
2006,02,01,01,23,24.20
2006,02,01,01,24,25.70
2006,02,01,01,25,40.20
2006,02,01,01,26,29.00
2006,02,01,01,27,17.70
2006,02,01,01,28,16.10
2006,02,01,01,29,16.10
2006,02,01,01,30,27.40
2006,02,01,01,31,45.10
2006,02,01,01,32,30.60
2006,02,01,01,33,8.10
2006,02,01,01,34,6.40
2006,02,01,01,35,40.20
2006,02,01,01,36,43.50
2006,02,01,01,37,29.00
2006,02,01,01,38,59.50
2006,02,01,01,39,33.80
2006,02,01,01,40,25.70
2006,02,01,01,41,38.60
2006,02,01,01,42,27.40
2006,02,01,01,43,38.60
2006,02,01,01,44,33.80
2006,02,01,01,45,43.50
2006,02,01,01,46,27.40
2006,02,01,01,47,29.00
2006,02,01,01,48,37.00
2006,02,01,01,49,32.20
2006,02,01,01,50,29.00
2006,02,01,01,51,33.80
2006,02,01,01,52,29.00
2006,02,01,01,53,45.10
2006,02,01,01,54,43.50
2006,02,01,01,55,37.00
2006,02,01,01,56,37.00
2006,02,01,01,57,24.20
2006,02,01,01,58,40.20
2006,02,01,01,59,33.80
2006,02,01,02,00,30.60
2006,02,01,02,01,22.50
2006,02,01,02,02,20.90
2006,02,01,02,03,40.20
2006,02,01,02,04,37.00
2006,02,01,02,05,37.00
2006,02,01,02,06,32.20
2006,02,01,02,07,45.10
2006,02,01,02,08,29.00
2006,02,01,02,09,37.00
2006,02,01,02,10,30.60
2006,02,01,02,11,33.80
2006,02,01,02,12,22.50
2006,02,01,02,13,27.40
2006,02,01,02,14,9.60
2006,02,01,02,15,20.90
2006,02,01,02,16,22.50
2006,02,01,02,17,37.00
2006,02,01,02,18,27.40
2006,02,01,02,19,22.50
2006,02,01,02,20,25.70
2006,02,01,02,21,33.80
2006,02,01,02,22,27.40
2006,02,01,02,23,27.40
2006,02,01,02,24,22.50
2006,02,01,02,25,25.70
2006,02,01,02,26,30.60
2006,02,01,02,27,35.40
2006,02,01,02,28,49.90
2006,02,01,02,29,25.70
2006,02,01,02,30,37.00
2006,02,01,02,31,57.90
2006,02,01,02,32,35.40
2006,02,01,02,33,20.90
2006,02,01,02,34,33.80
2006,02,01,02,35,29.00
2006,02,01,02,36,41.80
2006,02,01,02,37,40.20
2006,02,01,02,38,29.00
2006,02,01,02,39,30.60
2006,02,01,02,40,29.00
2006,02,01,02,41,19.30
2006,02,01,02,42,32.20
2006,02,01,02,43,54.70
2006,02,01,02,44,19.30
2006,02,01,02,45,17.70
2006,02,01,02,46,19.30
2006,02,01,02,47,27.40
2006,02,01,02,48,37.00
2006,02,01,02,49,19.30
2006,02,01,02,50,6.40
2006,02,01,02,51,20.90
2006,02,01,02,52,20.90
2006,02,01,02,53,20.90
2006,02,01,02,54,37.00
2006,02,01,02,55,43.50
2006,02,01,02,56,29.00
2006,02,01,02,57,43.50
2006,02,01,02,58,37.00
2006,02,01,02,59,51.50
2006,02,01,03,00,27.40
2006,02,01,03,01,11.30
2006,02,01,03,02,11.30
2006,02,01,03,03,29.00
2006,02,01,03,04,22.50
2006,02,01,03,05,22.50
2006,02,01,03,06,24.20
2006,02,01,03,07,20.90
2006,02,01,03,08,22.50
2006,02,01,03,09,16.10
2006,02,01,03,10,14.50
2006,02,01,03,11,32.20
2006,02,01,03,12,30.60
2006,02,01,03,13,35.40
2006,02,01,03,14,16.10
2006,02,01,03,15,24.20
2006,02,01,03,16,11.30
2006,02,01,03,17,17.70
2006,02,01,03,18,14.50
2006,02,01,03,19,27.40
2006,02,01,03,20,24.20
2006,02,01,03,21,24.20
2006,02,01,03,22,12.90
2006,02,01,03,23,8.10
2006,02,01,03,24,14.50
2006,02,01,03,25,16.10
2006,02,01,03,26,8.10
2006,02,01,03,27,17.70
2006,02,01,03,28,9.60
2006,02,01,03,29,16.10
2006,02,01,03,30,11.30
2006,02,01,03,31,1.60
2006,02,01,03,32,35.40
2006,02,01,03,33,16.10
2006,02,01,03,34,24.20
2006,02,01,03,35,29.00
2006,02,01,03,36,20.90
2006,02,01,03,37,14.50
2006,02,01,03,38,9.60
2006,02,01,03,39,25.70
2006,02,01,03,40,29.00
2006,02,01,03,41,17.70
2006,02,01,03,42,27.40
2006,02,01,03,43,29.00
2006,02,01,03,44,30.60
2006,02,01,03,45,24.20
2006,02,01,03,46,25.70
2006,02,01,03,47,24.20
2006,02,01,03,48,22.50
2006,02,01,03,49,17.70
2006,02,01,03,50,11.30
2006,02,01,03,51,20.90
2006,02,01,03,52,19.30
2006,02,01,03,53,6.40
2006,02,01,03,54,9.60
2006,02,01,03,55,16.10
2006,02,01,03,56,22.50
2006,02,01,03,57,24.20
2006,02,01,03,58,8.10
2006,02,01,03,59,16.10
2006,02,01,04,00,17.70
2006,02,01,04,01,24.20
2006,02,01,04,02,17.70
2006,02,01,04,03,17.70
2006,02,01,04,04,11.30
2006,02,01,04,05,19.30
2006,02,01,04,06,12.90
2006,02,01,04,07,20.90
2006,02,01,04,08,20.90
2006,02,01,04,09,20.90
2006,02,01,04,10,11.30
2006,02,01,04,11,24.20
2006,02,01,04,12,20.90
2006,02,01,04,13,24.20
2006,02,01,04,14,30.60
2006,02,01,04,15,20.90
2006,02,01,04,16,11.30
2006,02,01,04,17,32.20
2006,02,01,04,18,24.20
2006,02,01,04,19,29.00
2006,02,01,04,20,19.30
2006,02,01,04,21,24.20
2006,02,01,04,22,20.90
2006,02,01,04,23,20.90
2006,02,01,04,24,16.10
2006,02,01,04,25,32.20
2006,02,01,04,26,38.60
2006,02,01,04,27,37.00
2006,02,01,04,28,32.20
2006,02,01,04,29,46.70
2006,02,01,04,30,30.60
2006,02,01,04,31,32.20
2006,02,01,04,32,19.30
2006,02,01,04,33,33.80
2006,02,01,04,34,29.00
2006,02,01,04,35,29.00
2006,02,01,04,36,29.00
2006,02,01,04,37,25.70
2006,02,01,04,38,40.20
2006,02,01,04,39,20.90
2006,02,01,04,40,40.20
2006,02,01,04,41,40.20
2006,02,01,04,42,45.10
2006,02,01,04,43,40.20
2006,02,01,04,44,35.40
2006,02,01,04,45,30.60
2006,02,01,04,46,24.20
2006,02,01,04,47,22.50
2006,02,01,04,48,22.50
2006,02,01,04,49,22.50
2006,02,01,04,50,32.20
2006,02,01,04,51,27.40
2006,02,01,04,52,30.60
2006,02,01,04,53,35.40
2006,02,01,04,54,22.50
2006,02,01,04,55,32.20
2006,02,01,04,56,30.60
2006,02,01,04,57,29.00
2006,02,01,04,58,30.60
2006,02,01,04,59,33.80
2006,02,01,05,00,40.20
2006,02,01,05,01,24.20
2006,02,01,05,02,38.60
2006,02,01,05,03,24.20
2006,02,01,05,04,25.70
2006,02,01,05,05,35.40
2006,02,01,05,06,24.20
2006,02,01,05,07,30.60
2006,02,01,05,08,37.00
2006,02,01,05,09,29.00
2006,02,01,05,10,17.70
2006,02,01,05,11,27.40
2006,02,01,05,12,32.20
2006,02,01,05,13,33.80
2006,02,01,05,14,29.00
2006,02,01,05,15,32.20
2006,02,01,05,16,35.40
2006,02,01,05,17,32.20
2006,02,01,05,18,32.20
2006,02,01,05,19,33.80
2006,02,01,05,20,25.70
2006,02,01,05,21,22.50
2006,02,01,05,22,30.60
2006,02,01,05,23,25.70
2006,02,01,05,24,25.70
2006,02,01,05,25,43.50
2006,02,01,05,26,37.00
2006,02,01,05,27,49.90
2006,02,01,05,28,46.70
2006,02,01,05,29,54.70
2006,02,01,05,30,46.70
2006,02,01,05,31,38.60
2006,02,01,05,32,32.20
2006,02,01,05,33,53.10
2006,02,01,05,34,48.30
2006,02,01,05,35,40.20
2006,02,01,05,36,38.60
2006,02,01,05,37,49.90
2006,02,01,05,38,46.70
2006,02,01,05,39,30.60
2006,02,01,05,40,27.40
2006,02,01,05,41,40.20
2006,02,01,05,42,43.50
2006,02,01,05,43,41.80
2006,02,01,05,44,27.40
2006,02,01,05,45,33.80
2006,02,01,05,46,32.20
2006,02,01,05,47,43.50
2006,02,01,05,48,45.10
2006,02,01,05,49,33.80
2006,02,01,05,50,35.40
2006,02,01,05,51,51.50
2006,02,01,05,52,29.00
2006,02,01,05,53,49.90
2006,02,01,05,54,45.10
2006,02,01,05,55,29.00
2006,02,01,05,56,27.40
2006,02,01,05,57,37.00
2006,02,01,05,58,17.70
2006,02,01,05,59,20.90
2006,02,01,06,00,35.40
2006,02,01,06,01,37.00
2006,02,01,06,02,48.30
2006,02,01,06,03,37.00
2006,02,01,06,04,33.80
2006,02,01,06,05,27.40
2006,02,01,06,06,35.40
2006,02,01,06,07,40.20
2006,02,01,06,08,32.20
2006,02,01,06,09,22.50
2006,02,01,06,10,27.40
2006,02,01,06,11,35.40
2006,02,01,06,12,41.80
2006,02,01,06,13,29.00
2006,02,01,06,14,33.80
2006,02,01,06,15,38.60
2006,02,01,06,16,30.60
2006,02,01,06,19,41.80
2006,02,01,06,20,41.80
2006,02,01,06,21,46.70
2006,02,01,06,22,33.80
2006,02,01,06,23,30.60
2006,02,01,06,26,32.20
2006,02,01,06,27,48.30
2006,02,01,06,28,43.50
2006,02,01,06,29,25.70
2006,02,01,06,30,38.60
2006,02,01,06,31,37.00
2006,02,01,06,32,40.20
2006,02,01,06,33,35.40
2006,02,01,06,34,40.20
2006,02,01,06,35,46.70
2006,02,01,06,36,38.60
2006,02,01,06,37,37.00
2006,02,01,06,38,43.50
2006,02,01,06,39,30.60
2006,02,01,06,40,29.00
2006,02,01,06,41,46.70
2006,02,01,06,42,24.20
2006,02,01,06,43,27.40
2006,02,01,06,44,27.40
2006,02,01,06,45,22.50
2006,02,01,06,46,37.00
2006,02,01,06,47,24.20
2006,02,01,06,48,40.20
2006,02,01,06,49,37.00
2006,02,01,06,50,27.40
2006,02,01,06,51,32.20
2006,02,01,06,52,37.00
2006,02,01,06,53,33.80
2006,02,01,06,54,27.40
2006,02,01,06,55,37.00
2006,02,01,06,56,40.20
2006,02,01,06,57,46.70
2006,02,01,06,58,33.80
2006,02,01,06,59,35.40
2006,02,01,07,00,38.60
2006,02,01,07,01,22.50
2006,02,01,07,02,17.70
2006,02,01,07,03,25.70
2006,02,01,07,04,30.60
2006,02,01,07,05,33.80
2006,02,01,07,06,33.80
2006,02,01,07,07,24.20
2006,02,01,07,08,24.20
2006,02,01,07,09,30.60
2006,02,01,07,10,35.40
2006,02,01,07,11,24.20
2006,02,01,07,12,29.00
2006,02,01,07,13,40.20
2006,02,01,07,14,46.70
2006,02,01,07,15,40.20
2006,02,01,07,16,22.50
2006,02,01,07,17,20.90
2006,02,01,07,18,30.60
2006,02,01,07,19,29.00
2006,02,01,07,20,20.90
2006,02,01,07,21,29.00
2006,02,01,07,22,22.50
2006,02,01,07,23,40.20
2006,02,01,07,24,22.50
2006,02,01,07,25,29.00
2006,02,01,07,26,33.80
2006,02,01,07,27,35.40
2006,02,01,07,28,29.00
2006,02,01,07,29,30.60
2006,02,01,07,30,32.20
2006,02,01,07,31,27.40
2006,02,01,07,32,19.30
2006,02,01,07,33,25.70
2006,02,01,07,34,41.80
2006,02,01,07,35,24.20
2006,02,01,07,36,24.20
2006,02,01,07,37,20.90
2006,02,01,07,38,24.20
2006,02,01,07,39,24.20
2006,02,01,07,40,20.90
2006,02,01,07,41,24.20
2006,02,01,07,42,22.50
2006,02,01,07,43,11.30
2006,02,01,07,44,25.70
2006,02,01,07,45,16.10
2006,02,01,07,46,27.40
2006,02,01,07,47,38.60
2006,02,01,07,48,24.20
2006,02,01,07,49,16.10
2006,02,01,07,50,14.50
2006,02,01,07,51,16.10
2006,02,01,07,52,24.20
2006,02,01,07,53,20.90
2006,02,01,07,54,25.70
2006,02,01,07,55,19.30
2006,02,01,07,56,30.60
2006,02,01,07,57,22.50
2006,02,01,07,58,40.20
2006,02,01,07,59,25.70
2006,02,01,08,00,20.90
2006,02,01,08,01,19.30
2006,02,01,08,02,22.50
2006,02,01,08,03,29.00
2006,02,01,08,04,25.70
2006,02,01,08,05,25.70
2006,02,01,08,06,11.30
2006,02,01,08,07,29.00
2006,02,01,08,08,14.50
2006,02,01,08,09,19.30
2006,02,01,08,10,17.70
2006,02,01,08,11,19.30
2006,02,01,08,12,14.50
2006,02,01,08,13,9.60
2006,02,01,08,14,16.10
2006,02,01,08,15,9.60
2006,02,01,08,16,11.30
2006,02,01,08,17,17.70
2006,02,01,08,18,24.20
2006,02,01,08,19,20.90
2006,02,01,08,20,22.50
2006,02,01,08,21,27.40
2006,02,01,08,22,19.30
2006,02,01,08,23,16.10
2006,02,01,08,24,19.30
2006,02,01,08,25,24.20
2006,02,01,08,26,16.10
2006,02,01,08,27,20.90
2006,02,01,08,28,20.90
2006,02,01,08,29,19.30
2006,02,01,08,30,25.70
2006,02,01,08,31,12.90
2006,02,01,08,32,16.10
2006,02,01,08,33,11.30
2006,02,01,08,34,9.60
2006,02,01,08,35,27.40
2006,02,01,08,36,30.60
2006,02,01,08,37,8.10
2006,02,01,08,38,25.70
2006,02,01,08,39,17.70
2006,02,01,08,40,20.90
2006,02,01,08,41,25.70
2006,02,01,08,42,20.90
2006,02,01,08,43,25.70
2006,02,01,08,44,22.50
2006,02,01,08,45,17.70
2006,02,01,08,46,16.10
2006,02,01,08,47,9.60
2006,02,01,08,48,29.00
2006,02,01,08,49,32.20
2006,02,01,08,50,24.20
2006,02,01,08,51,22.50
2006,02,01,08,52,24.20
2006,02,01,08,53,24.20
2006,02,01,08,54,19.30
2006,02,01,08,55,20.90
2006,02,01,08,56,19.30
2006,02,01,08,57,17.70
2006,02,01,08,58,8.10
2006,02,01,08,59,16.10
2006,02,01,09,00,22.50
2006,02,01,09,01,17.70
2006,02,01,09,02,17.70
2006,02,01,09,03,16.10
2006,02,01,09,04,6.40
2006,02,01,09,05,9.60
2006,02,01,09,06,17.70
2006,02,01,09,07,12.90
2006,02,01,09,08,12.90
2006,02,01,09,09,11.30
2006,02,01,09,10,16.10
2006,02,01,09,11,11.30
2006,02,01,09,12,6.40
2006,02,01,09,13,8.10
2006,02,01,09,14,22.50
2006,02,01,09,15,22.50
2006,02,01,09,16,14.50
2006,02,01,09,17,11.30
2006,02,01,09,18,11.30
2006,02,01,09,19,4.80
2006,02,01,09,20,11.30
2006,02,01,09,21,11.30
2006,02,01,09,22,19.30
2006,02,01,09,23,12.90
2006,02,01,09,24,6.40
2006,02,01,09,25,11.30
2006,02,01,09,26,9.60
2006,02,01,09,27,8.10
2006,02,01,09,28,11.30
2006,02,01,09,29,11.30
2006,02,01,09,30,11.30
2006,02,01,09,31,8.10
2006,02,01,09,32,19.30
2006,02,01,09,33,9.60
2006,02,01,09,34,17.70
2006,02,01,09,35,17.70
2006,02,01,09,36,16.10
2006,02,01,09,37,14.50
2006,02,01,09,38,16.10
2006,02,01,09,39,14.50
2006,02,01,09,40,17.70
2006,02,01,09,41,9.60
2006,02,01,09,42,11.30
2006,02,01,09,43,11.30
2006,02,01,09,44,17.70
2006,02,01,09,45,17.70
2006,02,01,09,46,11.30
2006,02,01,09,47,14.50
2006,02,01,09,48,8.10
2006,02,01,09,49,9.60
2006,02,01,09,50,6.40
2006,02,01,09,51,17.70
2006,02,01,09,52,16.10
2006,02,01,09,53,19.30
2006,02,01,09,54,16.10
2006,02,01,09,55,16.10
2006,02,01,09,56,22.50
2006,02,01,09,57,20.90
2006,02,01,09,58,20.90
2006,02,01,09,59,11.30
2006,02,01,10,00,16.10
2006,02,01,10,01,29.00
2006,02,01,10,02,24.20
2006,02,01,10,03,14.50
2006,02,01,10,04,33.80
2006,02,01,10,05,22.50
2006,02,01,10,06,20.90
2006,02,01,10,07,12.90
2006,02,01,10,08,8.10
2006,02,01,10,09,17.70
2006,02,01,10,10,20.90
2006,02,01,10,11,16.10
2006,02,01,10,12,9.60
2006,02,01,10,13,16.10
2006,02,01,10,14,25.70
2006,02,01,10,15,22.50
2006,02,01,10,16,35.40
2006,02,01,10,17,14.50
2006,02,01,10,18,22.50
2006,02,01,10,19,20.90
2006,02,01,10,20,19.30
2006,02,01,10,21,24.20
2006,02,01,10,22,12.90
2006,02,01,10,23,24.20
2006,02,01,10,24,22.50
2006,02,01,10,25,14.50
2006,02,01,10,26,20.90
2006,02,01,10,27,25.70
2006,02,01,10,28,14.50
2006,02,01,10,29,29.00
2006,02,01,10,30,19.30
2006,02,01,10,31,19.30
2006,02,01,10,32,17.70
2006,02,01,10,33,14.50
2006,02,01,10,34,19.30
2006,02,01,10,35,14.50
2006,02,01,10,36,16.10
2006,02,01,10,44,16.10
2006,02,01,10,47,19.30
2006,02,01,10,50,16.10
2006,02,01,10,51,22.50
2006,02,01,10,52,8.10
2006,02,01,10,53,24.20
2006,02,01,10,54,16.10
2006,02,01,10,55,19.30
2006,02,01,10,56,17.70
2006,02,01,10,57,14.50
2006,02,01,10,58,16.10
2006,02,01,10,59,17.70
2006,02,01,11,00,27.40
2006,02,01,11,01,17.70
2006,02,01,11,02,20.90
2006,02,01,11,03,16.10
2006,02,01,11,04,19.30
2006,02,01,11,05,20.90
2006,02,01,11,06,19.30
2006,02,01,11,07,17.70
2006,02,01,11,08,6.40
2006,02,01,11,09,24.20
2006,02,01,11,10,20.90
2006,02,01,11,11,22.50
2006,02,01,11,12,20.90
2006,02,01,11,13,17.70
2006,02,01,11,14,19.30
2006,02,01,11,15,20.90
2006,02,01,11,16,20.90
2006,02,01,11,17,17.70
2006,02,01,11,18,9.60
2006,02,01,11,19,9.60
2006,02,01,11,20,16.10
2006,02,01,11,21,19.30
2006,02,01,11,22,19.30
2006,02,01,11,23,14.50
2006,02,01,11,24,20.90
2006,02,01,11,25,27.40
2006,02,01,11,26,11.30
2006,02,01,11,27,24.20
2006,02,01,11,28,14.50
2006,02,01,11,29,11.30
2006,02,01,11,30,25.70
2006,02,01,11,31,16.10
2006,02,01,11,32,20.90
2006,02,01,11,33,12.90
2006,02,01,11,34,22.50
2006,02,01,11,35,17.70
2006,02,01,11,36,20.90
2006,02,01,11,37,19.30
2006,02,01,11,38,19.30
2006,02,01,11,39,17.70
2006,02,01,11,40,22.50
2006,02,01,11,41,25.70
2006,02,01,11,42,19.30
2006,02,01,11,43,19.30
2006,02,01,11,44,25.70
2006,02,01,11,45,9.60
2006,02,01,11,46,24.20
2006,02,01,11,47,22.50
2006,02,01,11,48,9.60
2006,02,01,11,49,11.30
2006,02,01,11,50,17.70
2006,02,01,11,51,16.10
2006,02,01,11,52,27.40
2006,02,01,11,53,29.00
2006,02,01,11,54,16.10
2006,02,01,11,55,16.10
2006,02,01,11,56,20.90
2006,02,01,11,57,20.90
2006,02,01,11,58,24.20
2006,02,01,11,59,25.70
2006,02,01,12,00,20.90
2006,02,01,12,01,17.70
2006,02,01,12,02,11.30
2006,02,01,12,03,22.50
2006,02,01,12,04,22.50
2006,02,01,12,05,19.30
2006,02,01,12,06,19.30
2006,02,01,12,07,24.20
2006,02,01,12,08,11.30
2006,02,01,12,09,22.50
2006,02,01,12,10,17.70
2006,02,01,12,11,17.70
2006,02,01,12,12,8.10
2006,02,01,12,13,24.20
2006,02,01,12,14,14.50
2006,02,01,12,15,17.70
2006,02,01,12,16,20.90
2006,02,01,12,17,11.30
2006,02,01,12,18,19.30
2006,02,01,12,19,11.30
2006,02,01,12,20,14.50
2006,02,01,12,21,24.20
2006,02,01,12,22,16.10
2006,02,01,12,23,17.70
2006,02,01,12,24,14.50
2006,02,01,12,25,16.10
2006,02,01,12,26,22.50
2006,02,01,12,27,11.30
2006,02,01,12,28,16.10
2006,02,01,12,29,16.10
2006,02,01,12,30,9.60
2006,02,01,12,31,9.60
2006,02,01,12,32,17.70
2006,02,01,12,33,6.40
2006,02,01,12,34,11.30
2006,02,01,12,35,14.50
2006,02,01,12,36,20.90
2006,02,01,12,37,19.30
2006,02,01,12,38,20.90
2006,02,01,12,39,16.10
2006,02,01,12,40,8.10
2006,02,01,12,41,9.60
2006,02,01,12,42,9.60
2006,02,01,12,43,14.50
2006,02,01,12,44,16.10
2006,02,01,12,45,9.60
2006,02,01,12,46,4.80
2006,02,01,12,47,14.50
2006,02,01,12,48,20.90
2006,02,01,12,49,11.30
2006,02,01,12,50,4.80
2006,02,01,12,51,8.10
2006,02,01,12,52,9.60
2006,02,01,12,53,11.30
2006,02,01,12,54,11.30
2006,02,01,12,55,6.40
2006,02,01,12,56,14.50
2006,02,01,12,57,14.50
2006,02,01,12,58,4.80
2006,02,01,12,59,12.90
2006,02,01,13,00,9.60
2006,02,01,13,01,6.40
2006,02,01,13,02,4.80
2006,02,01,13,03,6.40
2006,02,01,13,04,6.40
2006,02,01,13,05,6.40
2006,02,01,13,06,6.40
2006,02,01,13,07,6.40
2006,02,01,13,08,6.40
2006,02,01,13,09,4.80
2006,02,01,13,10,8.10
2006,02,01,13,11,11.30
2006,02,01,13,12,14.50
2006,02,01,13,13,11.30
2006,02,01,13,14,16.10
2006,02,01,13,15,16.10
2006,02,01,13,16,8.10
2006,02,01,13,17,8.10
2006,02,01,13,18,4.80
2006,02,01,13,19,9.60
2006,02,01,13,20,8.10
2006,02,01,13,21,6.40
2006,02,01,13,22,8.10
2006,02,01,13,23,6.40
2006,02,01,13,24,6.40
2006,02,01,13,25,6.40
2006,02,01,13,26,6.40
2006,02,01,13,27,4.80
2006,02,01,13,28,8.10
2006,02,01,13,29,9.60
2006,02,01,13,30,9.60
2006,02,01,13,31,14.50
2006,02,01,13,32,12.90
2006,02,01,13,33,9.60
2006,02,01,13,34,9.60
2006,02,01,13,35,9.60
2006,02,01,13,36,4.80
2006,02,01,13,37,9.60
2006,02,01,13,38,11.30
2006,02,01,13,39,9.60
2006,02,01,13,40,12.90
2006,02,01,13,41,12.90
2006,02,01,13,42,11.30
2006,02,01,13,43,9.60
2006,02,01,13,44,9.60
2006,02,01,13,45,9.60
2006,02,01,13,46,16.10
2006,02,01,13,47,14.50
2006,02,01,13,48,9.60
2006,02,01,13,49,8.10
2006,02,01,13,50,8.10
2006,02,01,13,51,8.10
2006,02,01,13,52,9.60
2006,02,01,13,53,6.40
2006,02,01,13,54,6.40
2006,02,01,13,55,11.30
2006,02,01,13,56,9.60
2006,02,01,13,57,6.40
2006,02,01,13,58,9.60
2006,02,01,13,59,9.60
2006,02,01,14,00,9.60
2006,02,01,14,01,11.30
2006,02,01,14,02,11.30
2006,02,01,14,03,16.10
2006,02,01,14,04,17.70
2006,02,01,14,05,9.60
2006,02,01,14,06,11.30
2006,02,01,14,07,11.30
2006,02,01,14,19,11.30
2006,02,01,14,20,14.50
2006,02,01,14,21,16.10
2006,02,01,14,22,17.70
2006,02,01,14,23,14.50
2006,02,01,14,24,11.30
2006,02,01,14,25,9.60
2006,02,01,14,26,6.40
2006,02,01,14,27,6.40
2006,02,01,14,28,9.60
2006,02,01,14,29,8.10
2006,02,01,14,30,4.80
2006,02,01,14,31,6.40
2006,02,01,14,32,9.60
2006,02,01,14,33,11.30
2006,02,01,14,34,8.10
2006,02,01,14,35,9.60
2006,02,01,14,36,9.60
2006,02,01,14,37,8.10
2006,02,01,14,38,9.60
2006,02,01,14,39,9.60
2006,02,01,14,40,14.50
2006,02,01,14,41,14.50
2006,02,01,14,42,9.60
2006,02,01,14,43,11.30
2006,02,01,14,44,14.50
2006,02,01,14,45,16.10
2006,02,01,14,46,11.30
2006,02,01,14,47,19.30
2006,02,01,14,48,22.50
2006,02,01,14,49,19.30
2006,02,01,14,50,20.90
2006,02,01,14,51,17.70
2006,02,01,14,52,17.70
2006,02,01,14,53,16.10
2006,02,01,14,54,19.30
2006,02,01,14,55,19.30
2006,02,01,14,56,14.50
2006,02,01,14,57,9.60
2006,02,01,14,58,9.60
2006,02,01,14,59,17.70
2006,02,01,15,00,14.50
2006,02,01,15,01,9.60
2006,02,01,15,02,6.40
2006,02,01,15,03,12.90
2006,02,01,15,04,8.10
2006,02,01,15,05,12.90
2006,02,01,15,06,8.10
2006,02,01,15,07,8.10
2006,02,01,15,08,6.40
2006,02,01,15,09,6.40
2006,02,01,15,10,8.10
2006,02,01,15,11,4.80
2006,02,01,15,12,11.30
2006,02,01,15,13,11.30
2006,02,01,15,14,11.30
2006,02,01,15,15,9.60
2006,02,01,15,16,14.50
2006,02,01,15,17,8.10
2006,02,01,15,18,9.60
2006,02,01,15,19,9.60
2006,02,01,15,20,14.50
2006,02,01,15,21,12.90
2006,02,01,15,22,8.10
2006,02,01,15,23,8.10
2006,02,01,15,24,8.10
2006,02,01,15,25,6.40
2006,02,01,15,26,4.80
2006,02,01,15,27,8.10
2006,02,01,15,28,4.80
2006,02,01,15,29,4.80
2006,02,01,15,30,4.80
2006,02,01,15,31,3.20
2006,02,01,15,32,3.20
2006,02,01,15,33,6.40
2006,02,01,15,34,4.80
2006,02,01,15,35,8.10
2006,02,01,15,36,6.40
2006,02,01,15,37,8.10
2006,02,01,15,38,6.40
2006,02,01,15,39,8.10
2006,02,01,15,40,4.80
2006,02,01,15,41,6.40
2006,02,01,15,42,8.10
2006,02,01,15,43,8.10
2006,02,01,15,44,4.80
2006,02,01,15,45,6.40
2006,02,01,15,46,6.40
2006,02,01,15,47,6.40
2006,02,01,15,48,6.40
2006,02,01,15,49,4.80
2006,02,01,15,50,4.80
2006,02,01,15,51,4.80
2006,02,01,15,52,8.10
2006,02,01,15,53,4.80
2006,02,01,15,54,4.80
2006,02,01,15,55,6.40
2006,02,01,15,56,8.10
2006,02,01,15,57,6.40
2006,02,01,15,58,1.60
2006,02,01,15,59,1.60
2006,02,01,16,00,1.60
2006,02,01,16,01,3.20
2006,02,01,16,02,1.60
2006,02,01,16,03,3.20
2006,02,01,16,04,6.40
2006,02,01,16,05,6.40
2006,02,01,16,06,6.40
2006,02,01,16,07,9.60
2006,02,01,16,08,9.60
2006,02,01,16,09,9.60
2006,02,01,16,10,9.60
2006,02,01,16,11,9.60
2006,02,01,16,12,9.60
2006,02,01,16,13,8.10
2006,02,01,16,14,9.60
2006,02,01,16,15,11.30
2006,02,01,16,16,12.90
2006,02,01,16,17,8.10
2006,02,01,16,18,11.30
2006,02,01,16,19,12.90
2006,02,01,16,20,9.60
2006,02,01,16,21,4.80
2006,02,01,16,22,9.60
2006,02,01,16,23,14.50
2006,02,01,16,24,9.60
2006,02,01,16,25,11.30
2006,02,01,16,26,11.30
2006,02,01,16,27,11.30
2006,02,01,16,28,11.30
2006,02,01,16,29,9.60
2006,02,01,16,30,9.60
2006,02,01,16,31,17.70
2006,02,01,16,32,14.50
2006,02,01,16,33,11.30
2006,02,01,16,34,16.10
2006,02,01,16,35,17.70
2006,02,01,16,36,16.10
2006,02,01,16,37,19.30
2006,02,01,16,38,17.70
2006,02,01,16,39,16.10
2006,02,01,16,40,14.50
2006,02,01,16,41,9.60
2006,02,01,16,42,14.50
2006,02,01,16,43,14.50
2006,02,01,16,44,11.30
2006,02,01,16,45,14.50
2006,02,01,16,46,16.10
2006,02,01,16,47,16.10
2006,02,01,16,48,16.10
2006,02,01,16,49,12.90
2006,02,01,16,50,16.10
2006,02,01,16,51,14.50
2006,02,01,16,52,11.30
2006,02,01,16,53,14.50
2006,02,01,16,54,12.90
2006,02,01,16,55,11.30
2006,02,01,16,56,11.30
2006,02,01,16,57,11.30
2006,02,01,16,58,14.50
2006,02,01,16,59,14.50
2006,02,01,17,00,12.90
2006,02,01,17,01,16.10
2006,02,01,17,02,8.10
2006,02,01,17,03,11.30
2006,02,01,17,04,9.60
2006,02,01,17,05,9.60
2006,02,01,17,06,16.10
2006,02,01,17,07,14.50
2006,02,01,17,08,16.10
2006,02,01,17,09,17.70
2006,02,01,17,10,11.30
2006,02,01,17,11,11.30
2006,02,01,17,12,9.60
2006,02,01,17,13,8.10
2006,02,01,17,14,8.10
2006,02,01,17,15,8.10
2006,02,01,17,16,11.30
2006,02,01,17,17,8.10
2006,02,01,17,18,8.10
2006,02,01,17,19,6.40
2006,02,01,17,20,6.40
2006,02,01,17,21,11.30
2006,02,01,17,22,8.10
2006,02,01,17,23,4.80
2006,02,01,17,24,6.40
2006,02,01,17,25,8.10
2006,02,01,17,26,8.10
2006,02,01,17,27,8.10
2006,02,01,17,28,8.10
2006,02,01,17,29,8.10
2006,02,01,17,30,6.40
2006,02,01,17,31,12.90
2006,02,01,17,32,17.70
2006,02,01,17,33,8.10
2006,02,01,17,34,11.30
2006,02,01,17,35,14.50
2006,02,01,17,36,9.60
2006,02,01,17,37,11.30
2006,02,01,17,38,9.60
2006,02,01,17,39,9.60
2006,02,01,17,40,6.40
2006,02,01,17,41,8.10
2006,02,01,17,42,9.60
2006,02,01,17,43,8.10
2006,02,01,17,44,8.10
2006,02,01,17,45,6.40
2006,02,01,17,46,8.10
2006,02,01,17,47,9.60
2006,02,01,17,48,9.60
2006,02,01,17,49,4.80
2006,02,01,17,50,4.80
2006,02,01,17,51,8.10
2006,02,01,17,52,14.50
2006,02,01,17,53,12.90
2006,02,01,17,54,11.30
2006,02,01,17,55,9.60